[[{"header":{"parameterUnit":"m.s-1","parameterCategory":2,"la1":30.2991,"la2":30.254,"lo1":-89.0895,"lo2":-89.0444,"dy":0.0017,"dx":0.0017,"nx":28,"ny":28,"refTime":"2025-12-17T09:00:00:Z","depth":"0","parameterNumber":2,"parameterNumberName":"U-component_of_CURRENTS"},"data":[0,0,0,0,0,0,0,0,0,0,0,0,0,0,0,0,0,0,0,0,0,0,0,0,0,0,0,0,0,0,0,0,0,0,0,0,0,0,0,0,0,0,0,0,0,0,0,0,0,0,0,0,0,0,0,0,0,0,-0.2204,-0.2204,0,-0.2225,-0.2225,-0.2225,-0.2195,-0.2194,-0.2193,-0.2192,-0.2162,-0.2162,-0.2162,0,0,0,0,0,0,0,0,0,0,0,0,0,-0.2145,-0.2146,-0.2204,-0.2204,-0.2205,-0.2225,-0.2225,-0.2225,-0.2195,-0.2194,-0.2193,-0.2192,-0.2162,-0.2162,-0.2162,0,0,0,0,0,0,0,0,0,0,0,0,0,-0.2167,-0.2146,-0.2204,-0.2193,-0.2193,-0.2225,-0.2225,-0.2225,-0.2195,-0.2194,-0.2192,-0.2191,-0.2162,-0.2162,-0.2162,-0.219,0,0,-0.2162,-0.2162,0,0,0,0,0,0,0,0,-0.2166,-0.2169,-0.2194,-0.2194,-0.2193,-0.2207,-0.2193,-0.2212,-0.2196,-0.2192,-0.2192,-0.2191,-0.2175,-0.2174,-0.2179,-0.2189,-0.2187,-0.2162,-0.2162,-0.2162,-0.2162,0,0,0,0,0,0,0,-0.2164,-0.2168,-0.221,-0.2195,-0.2194,-0.219,-0.2192,-0.2197,-0.2189,-0.2193,-0.2191,-0.2196,-0.2173,-0.2179,-0.2178,-0.2187,-0.2162,-0.2162,-0.2162,-0.2162,-0.2186,-0.2187,0,0,0,0,0,0,-0.2167,-0.2167,-0.221,-0.2211,-0.2178,-0.2193,-0.2194,-0.2203,-0.219,-0.2187,-0.2198,-0.2195,-0.2179,-0.2178,-0.2177,-0.219,-0.2162,-0.2162,-0.2162,-0.2186,-0.2187,-0.2187,0,0,0,0,0,0,-0.2165,-0.217,-0.2209,-0.219,-0.2195,-0.2195,-0.2205,-0.2204,-0.2203,-0.2194,-0.219,-0.2197,-0.2178,-0.2176,-0.2181,-0.2189,-0.2162,-0.2163,-0.2185,-0.2186,-0.2187,-0.2229,0,0,0,0,0,0,-0.2164,-0.217,-0.2173,-0.2191,-0.2196,-0.2228,-0.2207,-0.2206,-0.221,-0.2206,-0.2193,-0.2189,-0.2177,-0.2181,-0.2181,-0.2189,-0.2163,-0.2184,-0.2186,-0.2187,-0.2227,-0.2232,-0.2235,0,0,0,0,0,-0.2161,-0.2175,-0.2173,-0.2178,-0.2202,-0.2229,-0.2232,-0.2226,-0.2211,-0.2218,-0.2207,-0.2189,-0.2187,-0.2182,-0.2182,-0.219,-0.2184,-0.2185,-0.2187,-0.2225,-0.2231,-0.2235,0,0,0,0,0,0,-0.215,-0.2174,-0.2172,-0.2191,-0.2208,-0.2225,-0.223,-0.2229,-0.2228,-0.2219,-0.2204,-0.22,-0.2206,-0.2195,-0.2189,-0.2199,-0.218,-0.2182,-0.221,-0.2215,-0.2219,-0.2218,-0.2163,0,0,0,0,0,-0.2152,-0.2163,-0.2188,-0.2201,-0.2211,-0.2221,-0.2229,-0.2229,-0.2234,-0.2232,-0.2225,-0.2215,-0.2215,-0.2211,-0.221,-0.2221,-0.2198,-0.2224,-0.2228,-0.2232,-0.2231,-0.2211,-0.2213,-0.2192,-0.2192,-0.2192,0,0,-0.215,-0.2164,-0.217,-0.2198,-0.2209,-0.2234,-0.2221,-0.2239,-0.2254,-0.223,-0.224,-0.2232,-0.2221,-0.2231,-0.2232,-0.2221,-0.2225,-0.2233,-0.2237,-0.2234,-0.2213,-0.2214,-0.2216,-0.2193,-0.2192,-0.2192,0,0,-0.2159,-0.2167,-0.2183,-0.2203,-0.2226,-0.2239,-0.2245,-0.2266,-0.2266,-0.2283,-0.2266,-0.2263,-0.2266,-0.2259,-0.2256,-0.2283,-0.2249,-0.228,-0.23,-0.2281,-0.2282,-0.2283,-0.2254,-0.2252,-0.2281,-0.2281,-0.2281,0,-0.2153,-0.2178,-0.2191,-0.2217,-0.2233,-0.2243,-0.2268,-0.2281,-0.2297,-0.2299,-0.2288,-0.2287,-0.2279,-0.2285,-0.2294,-0.2291,-0.2271,-0.2283,-0.2286,-0.2286,-0.2287,-0.2256,-0.2253,-0.2283,-0.2283,-0.2282,-0.2282,0,-0.2178,-0.2198,-0.2211,-0.2244,-0.2266,-0.2289,-0.2315,-0.2328,-0.2329,-0.2335,-0.234,-0.2331,-0.2324,-0.2325,-0.232,-0.2321,-0.2302,-0.2295,-0.2273,-0.2291,-0.2258,-0.2254,-0.2286,-0.2285,-0.2285,-0.2284,0,0,-0.2157,-0.2216,-0.2217,-0.2235,-0.2281,-0.2299,-0.2333,-0.2359,-0.2367,-0.2377,-0.2381,-0.2385,-0.237,-0.2365,-0.2353,-0.2342,-0.2329,-0.2323,-0.2321,-0.2292,-0.2277,-0.222,-0.221,-0.2321,-0.2321,-0.2321,-0.2252,0,-0.2166,-0.221,-0.2242,-0.228,-0.2305,-0.2334,-0.2363,-0.2387,-0.2396,-0.2404,-0.2396,-0.2395,-0.2388,-0.2379,-0.2371,-0.234,-0.2321,-0.2347,-0.2264,-0.2262,-0.2208,-0.2205,-0.2136,-0.2066,-0.2248,-0.2247,-0.2247,0,-0.2171,-0.2201,-0.224,-0.2293,-0.2305,-0.2331,-0.2363,-0.2391,-0.2413,-0.242,-0.2421,-0.2413,-0.2405,-0.2391,-0.2346,-0.2362,-0.2323,-0.2297,-0.2293,-0.2222,-0.2198,-0.2077,-0.2051,-0.2045,-0.2241,-0.2241,-0.2242,0,-0.213,-0.2194,-0.2219,-0.2239,-0.2304,-0.232,-0.2349,-0.2384,-0.2403,-0.242,-0.2426,-0.2418,-0.2401,-0.2368,-0.232,-0.2331,-0.2259,-0.2262,-0.2171,-0.2166,-0.2081,-0.2069,-0.2036,-0.222,-0.222,-0.222,-0.222,0,-0.2118,-0.2134,-0.22,-0.2211,-0.2237,-0.2292,-0.2315,-0.2344,-0.2383,-0.2394,-0.242,-0.2416,-0.2394,-0.2356,-0.2317,-0.2226,-0.225,-0.2167,-0.2143,-0.2093,-0.2084,-0.2052,-0.2065,-0.2218,-0.2218,-0.2219,-0.2219,0,-0.2059,-0.2106,-0.2135,-0.2199,-0.2216,-0.2227,-0.2293,-0.2306,-0.2357,-0.2369,-0.2375,-0.2401,-0.2348,-0.2313,-0.2245,-0.2203,-0.2091,-0.2094,-0.2031,-0.2002,-0.1912,-0.193,-0.1837,-0.1786,-0.1982,-0.198,-0.1979,0,-0.203,-0.204,-0.2101,-0.211,-0.2134,-0.217,-0.2191,-0.2269,-0.229,-0.235,-0.2344,-0.2325,-0.2275,-0.2168,-0.2098,-0.2001,-0.2001,-0.1889,-0.1897,-0.189,-0.1893,-0.1897,-0.1863,-0.18,-0.1797,-0.1794,-0.1792,0,-0.1962,-0.1984,-0.2001,-0.2025,-0.2047,-0.2079,-0.212,-0.2138,-0.222,-0.2235,-0.223,-0.2198,-0.2126,-0.2002,-0.1903,-0.1844,-0.1846,-0.1836,-0.1844,-0.1756,-0.1742,-0.1687,-0.1866,-0.1771,-0.1774,-0.1775,-0.1776,-0.1777,-0.189,-0.1885,-0.1906,-0.1915,-0.1942,-0.1952,-0.1939,-0.1995,-0.2004,-0.2002,-0.2063,-0.1995,-0.1939,-0.1788,-0.1732,-0.1641,-0.1673,-0.1601,-0.1624,-0.163,-0.1578,-0.1705,-0.1579,-0.158,-0.1581,-0.1582,-0.1583,0,-0.1786,-0.1787,-0.1795,-0.18,-0.1779,-0.1834,-0.1856,-0.182,-0.1783,-0.1825,-0.1798,-0.1756,-0.164,-0.1611,-0.1527,-0.1459,-0.1429,-0.1433,-0.1439,-0.1414,-0.1531,-0.1521,-0.1358,-0.1358,-0.1358,-0.1358,-0.1358,-0.1358,-0.1729,-0.1689,-0.1694,-0.162,-0.1622,-0.1553,-0.1534,-0.15,-0.1503,-0.1453,-0.1465,-0.151,-0.1493,-0.1547,-0.1454,-0.1388,-0.1357,-0.1307,-0.1326,-0.1444,-0.1463,-0.1481,-0.1475,-0.1305,-0.1305,-0.1164,-0.1163,-0.1162]},{"header":{"parameterUnit":"m.s-1","parameterCategory":2,"la1":30.2991,"la2":30.254,"lo1":-89.0895,"lo2":-89.0444,"dy":0.0017,"dx":0.0017,"nx":28,"ny":28,"refTime":"2025-12-17T09:00:00:Z","depth":"0","parameterNumber":3,"parameterNumberName":"V-component_of_CURRENTS"},"data":[0,0,0,0,0,0,0,0,0,0,0,0,0,0,0,0,0,0,0,0,0,0,0,0,0,0,0,0,0,0,0,0,0,0,0,0,0,0,0,0,0,0,0,0,0,0,0,0,0,0,0,0,0,0,0,0,0,0,-0.0353,-0.0352,0,-0.0291,-0.029,-0.0289,-0.0245,-0.0244,-0.0244,-0.0244,-0.0154,-0.0152,-0.0149,0,0,0,0,0,0,0,0,0,0,0,0,0,-0.0389,-0.0389,-0.0353,-0.0352,-0.0351,-0.0291,-0.029,-0.0289,-0.0245,-0.0244,-0.0244,-0.0244,-0.0154,-0.0152,-0.0149,0,0,0,0,0,0,0,0,0,0,0,0,0,-0.0353,-0.0388,-0.0353,-0.0323,-0.032,-0.0291,-0.029,-0.0289,-0.0245,-0.0244,-0.0244,-0.0244,-0.0155,-0.0152,-0.0149,-0.0136,0,0,-0.0139,-0.0137,0,0,0,0,0,0,0,0,-0.0356,-0.0352,-0.0328,-0.0325,-0.0322,-0.0276,-0.027,-0.0237,-0.0245,-0.0272,-0.0244,-0.0244,-0.0193,-0.0187,-0.0174,-0.0131,-0.0128,-0.0138,-0.0137,-0.0135,-0.0134,0,0,0,0,0,0,0,-0.0358,-0.0354,-0.0327,-0.0328,-0.0323,-0.0298,-0.0293,-0.0263,-0.0234,-0.0269,-0.0266,-0.0262,-0.0191,-0.0178,-0.0172,-0.0126,-0.0139,-0.0136,-0.0134,-0.0132,-0.0057,-0.0057,0,0,0,0,0,0,-0.0371,-0.0357,-0.0329,-0.0325,-0.034,-0.0298,-0.0292,-0.029,-0.0234,-0.0226,-0.0262,-0.026,-0.0183,-0.0176,-0.0168,-0.0142,-0.0135,-0.0132,-0.013,-0.0057,-0.0057,-0.0057,0,0,0,0,0,0,-0.0372,-0.037,-0.0331,-0.034,-0.0334,-0.0298,-0.0296,-0.0289,-0.0276,-0.023,-0.022,-0.0257,-0.0183,-0.0173,-0.0142,-0.0139,-0.0131,-0.0128,-0.0057,-0.0057,-0.0057,-0.0095,0,0,0,0,0,0,-0.0374,-0.037,-0.0375,-0.0341,-0.0334,-0.032,-0.0296,-0.0288,-0.0275,-0.0271,-0.0222,-0.0213,-0.0182,-0.0147,-0.0139,-0.0134,-0.0125,-0.0057,-0.0057,-0.0057,-0.0093,-0.0096,-0.0098,0,0,0,0,0,-0.0375,-0.0386,-0.0375,-0.0372,-0.0341,-0.0321,-0.0314,-0.0286,-0.0275,-0.0273,-0.0237,-0.0215,-0.014,-0.0144,-0.0134,-0.0129,-0.0057,-0.0057,-0.0057,-0.0092,-0.0095,-0.0098,0,0,0,0,0,0,-0.0404,-0.0382,-0.0369,-0.0373,-0.035,-0.0314,-0.0311,-0.0292,-0.0262,-0.0259,-0.0213,-0.0202,-0.0173,-0.0148,-0.0153,-0.0107,-0.0095,-0.0093,-0.0126,-0.0128,-0.0131,-0.0141,-0.0122,0,0,0,0,0,-0.0413,-0.0415,-0.0386,-0.0389,-0.0381,-0.0347,-0.0336,-0.0317,-0.0287,-0.0274,-0.0238,-0.02,-0.0165,-0.0145,-0.0114,-0.0089,-0.0056,-0.0079,-0.0081,-0.0083,-0.0085,-0.0034,-0.0032,-0.0056,-0.0056,-0.0056,0,0,-0.0424,-0.0413,-0.0413,-0.0395,-0.0376,-0.037,-0.0339,-0.0328,-0.0318,-0.0269,-0.0245,-0.0208,-0.0161,-0.0132,-0.0117,-0.0109,-0.0059,-0.0083,-0.0085,-0.0086,-0.0034,-0.0031,-0.0029,-0.0056,-0.0056,-0.0056,0,0,-0.0453,-0.0439,-0.0451,-0.0437,-0.0416,-0.0392,-0.0392,-0.0358,-0.0337,-0.0312,-0.0271,-0.0232,-0.0186,-0.0144,-0.0119,-0.0115,-0.0075,-0.0108,-0.0123,-0.0074,-0.0071,-0.0069,-0.0026,-0.0019,-0.0107,-0.0107,-0.0107,0,-0.0469,-0.0479,-0.0451,-0.0458,-0.0449,-0.0406,-0.0413,-0.0385,-0.0343,-0.0323,-0.0312,-0.0226,-0.0189,-0.0138,-0.0138,-0.0119,-0.0089,-0.0118,-0.0077,-0.0073,-0.007,-0.0027,-0.0019,-0.0109,-0.0108,-0.0108,-0.0108,0,-0.0505,-0.051,-0.0516,-0.0509,-0.0494,-0.0494,-0.0453,-0.0432,-0.0402,-0.0367,-0.0315,-0.0258,-0.0206,-0.0186,-0.0161,-0.0117,-0.0102,-0.0088,-0.0071,-0.007,-0.0024,-0.0015,-0.0111,-0.0111,-0.011,-0.011,0,0,-0.0545,-0.0545,-0.0546,-0.0551,-0.0522,-0.0514,-0.0493,-0.0456,-0.0435,-0.0385,-0.0349,-0.0284,-0.0247,-0.0216,-0.017,-0.0125,-0.0076,-0.0103,-0.0099,-0.0063,0.0031,0.0065,0.0078,-0.0055,-0.0054,-0.0053,0.0052,0,-0.0582,-0.0615,-0.0595,-0.0609,-0.062,-0.057,-0.0552,-0.0509,-0.046,-0.0413,-0.0338,-0.0292,-0.0258,-0.0233,-0.0181,-0.0099,-0.0054,-0.0106,0.0026,0.003,0.0059,0.0089,0.0119,0.0218,0.0061,0.0063,0.0064,0,-0.0624,-0.064,-0.0672,-0.0661,-0.0659,-0.0655,-0.061,-0.0586,-0.0504,-0.0463,-0.0395,-0.0335,-0.0254,-0.0233,-0.0092,-0.0127,-0.0058,0.0004,0.001,0.0061,0.0082,0.0192,0.024,0.0347,0.0078,0.0077,0.0076,0,-0.0674,-0.0688,-0.0716,-0.0715,-0.0697,-0.0693,-0.0674,-0.0606,-0.0577,-0.0493,-0.0457,-0.0353,-0.0293,-0.0195,-0.0065,-0.008,0.0092,0.009,0.0188,0.0191,0.0253,0.0259,0.0418,0.0181,0.0181,0.0181,0.0181,0,-0.0724,-0.0742,-0.0746,-0.0763,-0.0783,-0.0745,-0.0738,-0.0698,-0.0628,-0.0584,-0.049,-0.0424,-0.0281,-0.0163,-0.0063,0.0101,0.0098,0.0195,0.0226,0.024,0.0244,0.0368,0.0395,0.0185,0.0184,0.0183,0.0183,0,-0.0774,-0.0778,-0.0811,-0.0812,-0.0813,-0.0827,-0.0797,-0.0782,-0.0707,-0.0645,-0.0621,-0.0468,-0.0305,-0.0154,0.0028,0.0113,0.0327,0.0309,0.0314,0.0343,0.0516,0.0538,0.0714,0.0772,0.0429,0.0431,0.0432,0,-0.0803,-0.083,-0.0859,-0.0883,-0.0888,-0.0898,-0.0898,-0.0836,-0.0807,-0.0662,-0.0632,-0.046,-0.0315,-0.0029,0.0154,0.035,0.0417,0.0477,0.0453,0.0545,0.0594,0.0605,0.064,0.0522,0.0524,0.0526,0.0527,0,-0.0855,-0.0866,-0.0894,-0.0952,-0.0973,-0.0983,-0.0974,-0.0964,-0.0865,-0.0778,-0.0627,-0.0497,-0.0204,0.0055,0.0307,0.0418,0.0554,0.0514,0.0621,0.0693,0.0706,0.0769,0.0424,0.0541,0.054,0.0539,0.0538,0.0538,-0.0883,-0.0922,-0.0963,-0.1012,-0.1039,-0.1053,-0.1052,-0.1008,-0.0938,-0.0777,-0.064,-0.0399,-0.0041,0.0334,0.046,0.073,0.0686,0.0803,0.0827,0.0833,0.0882,0.0562,0.0703,0.0702,0.0702,0.0701,0.0701,0,-0.0915,-0.0959,-0.1017,-0.1068,-0.1104,-0.11,-0.1083,-0.1041,-0.0948,-0.0764,-0.0582,-0.0134,0.0211,0.0521,0.0901,0.1038,0.1052,0.1103,0.1134,0.1158,0.09,0.0897,0.1072,0.1072,0.1072,0.1072,0.1072,0.1072,-0.0933,-0.0998,-0.1033,-0.1105,-0.1137,-0.1147,-0.113,-0.1039,-0.0904,-0.0594,-0.031,-0.0077,0.0378,0.0971,0.131,0.1334,0.1433,0.1423,0.1474,0.1299,0.1273,0.1247,0.1254,0.1502,0.1502,0.1729,0.1732,0.1733]}],[{"header":{"parameterUnit":"m.s-1","parameterCategory":2,"la1":30.2991,"la2":30.254,"lo1":-89.0895,"lo2":-89.0444,"dy":0.0017,"dx":0.0017,"nx":28,"ny":28,"refTime":"2025-12-17T09:00:00:Z","depth":"2","parameterNumber":2,"parameterNumberName":"U-component_of_CURRENTS"},"data":[0,0,0,0,0,0,0,0,0,0,0,0,0,0,0,0,0,0,0,0,0,0,0,0,0,0,0,0,0,0,0,0,0,0,0,0,0,0,0,0,0,0,0,0,0,0,0,0,0,0,0,0,0,0,0,0,0,0,-0.1925,-0.1926,0,-0.1939,-0.1939,-0.1939,-0.1917,-0.1916,-0.1915,-0.1915,-0.1889,-0.1889,-0.1889,0,0,0,0,0,0,0,0,0,0,0,0,0,-0.1877,-0.1878,-0.1925,-0.1926,-0.1926,-0.1939,-0.1939,-0.1939,-0.1917,-0.1916,-0.1915,-0.1914,-0.1889,-0.1889,-0.1889,0,0,0,0,0,0,0,0,0,0,0,0,0,-0.1893,-0.1878,-0.1925,-0.1918,-0.1917,-0.1939,-0.1939,-0.1939,-0.1917,-0.1916,-0.1915,-0.1914,-0.1889,-0.1889,-0.1889,-0.1905,0,0,-0.1888,-0.1888,0,0,0,0,0,0,0,0,-0.1892,-0.1895,-0.1918,-0.1918,-0.1918,-0.1927,-0.1913,-0.1927,-0.1917,-0.1915,-0.1915,-0.1914,-0.19,-0.1899,-0.1901,-0.1904,-0.1903,-0.1888,-0.1888,-0.1888,-0.1888,0,0,0,0,0,0,0,-0.1891,-0.1894,-0.1929,-0.1919,-0.1919,-0.1913,-0.1914,-0.1915,-0.191,-0.1915,-0.1914,-0.1919,-0.1899,-0.1901,-0.19,-0.1903,-0.1888,-0.1888,-0.1888,-0.1888,-0.1908,-0.1909,0,0,0,0,0,0,-0.1895,-0.1893,-0.1928,-0.1929,-0.1905,-0.1915,-0.1916,-0.1923,-0.1911,-0.1909,-0.192,-0.1918,-0.1902,-0.1901,-0.1899,-0.1919,-0.1888,-0.1888,-0.1888,-0.1908,-0.1909,-0.1909,0,0,0,0,0,0,-0.1894,-0.1898,-0.1928,-0.1913,-0.1916,-0.1917,-0.1925,-0.1924,-0.1927,-0.1915,-0.1912,-0.1924,-0.1901,-0.19,-0.1905,-0.1917,-0.1888,-0.1887,-0.1907,-0.1908,-0.1909,-0.1957,0,0,0,0,0,0,-0.1892,-0.1898,-0.1902,-0.1913,-0.1918,-0.1945,-0.1926,-0.1925,-0.1932,-0.193,-0.1918,-0.1914,-0.1901,-0.1906,-0.1905,-0.1917,-0.1887,-0.1906,-0.1908,-0.1909,-0.1955,-0.196,-0.1964,0,0,0,0,0,-0.1891,-0.1903,-0.1902,-0.1906,-0.1924,-0.1946,-0.1948,-0.1943,-0.1933,-0.1941,-0.1932,-0.1915,-0.1913,-0.1907,-0.1906,-0.1917,-0.1906,-0.1907,-0.1909,-0.1953,-0.1959,-0.1964,0,0,0,0,0,0,-0.1885,-0.1903,-0.1901,-0.1918,-0.1932,-0.1943,-0.1949,-0.1949,-0.1949,-0.1945,-0.1928,-0.1925,-0.1933,-0.1921,-0.1914,-0.1926,-0.1905,-0.1906,-0.1939,-0.1944,-0.1949,-0.1948,-0.1887,0,0,0,0,0,-0.1887,-0.1898,-0.1916,-0.1928,-0.1938,-0.1945,-0.1952,-0.1953,-0.1957,-0.1956,-0.195,-0.1942,-0.194,-0.1938,-0.1935,-0.1946,-0.1923,-0.1951,-0.1956,-0.196,-0.1959,-0.1941,-0.1943,-0.1914,-0.1914,-0.1914,0,0,-0.1888,-0.1899,-0.1904,-0.1928,-0.1936,-0.1957,-0.1946,-0.1964,-0.1977,-0.1954,-0.1967,-0.196,-0.1947,-0.1957,-0.196,-0.1948,-0.1956,-0.1962,-0.1965,-0.1962,-0.1942,-0.1945,-0.1947,-0.1915,-0.1915,-0.1915,0,0,-0.1898,-0.1906,-0.192,-0.1937,-0.1958,-0.1967,-0.1975,-0.1992,-0.1994,-0.2012,-0.1996,-0.1996,-0.1998,-0.199,-0.1986,-0.2014,-0.1982,-0.2014,-0.2037,-0.202,-0.2022,-0.2023,-0.1998,-0.1997,-0.2015,-0.2015,-0.2015,0,-0.1896,-0.1916,-0.1928,-0.195,-0.1964,-0.1974,-0.1996,-0.2008,-0.2023,-0.2027,-0.202,-0.202,-0.2011,-0.2017,-0.2028,-0.2024,-0.2006,-0.2018,-0.2026,-0.2027,-0.2027,-0.2001,-0.1999,-0.2018,-0.2018,-0.2017,-0.2017,0,-0.1918,-0.1937,-0.1949,-0.1977,-0.1997,-0.2018,-0.2041,-0.2056,-0.206,-0.2066,-0.2075,-0.2066,-0.2061,-0.2063,-0.2057,-0.2061,-0.2044,-0.2034,-0.2011,-0.2033,-0.2004,-0.2001,-0.2022,-0.2021,-0.202,-0.2019,0,0,-0.1903,-0.1954,-0.1955,-0.1971,-0.2012,-0.2028,-0.2061,-0.2086,-0.2096,-0.2108,-0.2115,-0.2121,-0.211,-0.2105,-0.2094,-0.2085,-0.2079,-0.2068,-0.2066,-0.2042,-0.2036,-0.198,-0.1971,-0.2072,-0.2072,-0.2072,-0.2013,0,-0.1913,-0.195,-0.1978,-0.2013,-0.2034,-0.2062,-0.2089,-0.2113,-0.2125,-0.2136,-0.2131,-0.2133,-0.2128,-0.2124,-0.2117,-0.2088,-0.2074,-0.2095,-0.2018,-0.2016,-0.1963,-0.1966,-0.1829,-0.1761,-0.201,-0.2009,-0.2009,0,-0.1918,-0.1943,-0.1978,-0.2025,-0.2037,-0.2061,-0.2095,-0.2121,-0.2146,-0.2155,-0.2161,-0.2156,-0.2152,-0.2139,-0.21,-0.2115,-0.2081,-0.2055,-0.2052,-0.1979,-0.1954,-0.1779,-0.1746,-0.2004,-0.2004,-0.2005,-0.2005,0,-0.1882,-0.1938,-0.1961,-0.1979,-0.2037,-0.2056,-0.2084,-0.2119,-0.2138,-0.2161,-0.217,-0.2166,-0.2154,-0.2125,-0.2082,-0.2091,-0.2027,-0.2027,-0.1941,-0.1937,-0.1792,-0.1775,-0.1991,-0.1991,-0.1991,-0.1992,-0.1992,0,-0.187,-0.1887,-0.1946,-0.1956,-0.1982,-0.2033,-0.2059,-0.2088,-0.2128,-0.2139,-0.2169,-0.2165,-0.215,-0.2116,-0.2081,-0.1997,-0.2022,-0.1939,-0.1917,-0.1806,-0.1791,-0.1981,-0.1981,-0.1989,-0.199,-0.199,-0.1991,0,-0.1819,-0.1861,-0.1887,-0.1947,-0.1964,-0.1978,-0.2041,-0.2055,-0.2107,-0.2121,-0.2129,-0.2154,-0.2109,-0.2079,-0.2018,-0.1977,-0.1914,-0.1876,-0.1745,-0.1708,-0.1836,-0.1839,-0.1775,-0.1773,-0.1771,-0.1769,-0.1767,0,-0.1793,-0.1801,-0.1859,-0.1867,-0.1891,-0.1928,-0.1948,-0.2024,-0.2041,-0.2102,-0.2094,-0.2083,-0.2034,-0.1938,-0.1866,-0.1778,-0.1838,-0.1609,-0.1603,-0.1829,-0.1814,-0.182,-0.1826,-0.1428,-0.1424,-0.142,-0.1418,0,-0.1731,-0.1753,-0.1767,-0.1791,-0.1812,-0.184,-0.1878,-0.1892,-0.197,-0.1985,-0.1978,-0.1949,-0.1881,-0.1724,-0.1635,-0.1573,-0.1617,-0.1537,-0.1788,-0.1514,-0.1499,-0.1486,-0.1503,-0.1387,-0.139,-0.1393,-0.1394,-0.1395,-0.1666,-0.1661,-0.1679,-0.1688,-0.1714,-0.1716,-0.1699,-0.1747,-0.1751,-0.1738,-0.18,-0.1704,-0.1673,-0.1455,-0.137,-0.131,-0.1423,-0.1353,-0.1364,-0.1378,-0.1359,-0.1342,-0.1197,-0.1198,-0.12,-0.1201,-0.1203,0,-0.1569,-0.1568,-0.1574,-0.1575,-0.1551,-0.1607,-0.1617,-0.157,-0.1525,-0.1541,-0.1508,-0.1313,-0.1214,-0.1191,-0.1056,-0.1029,-0.1025,-0.0981,-0.0976,-0.1006,-0.1033,-0.0998,-0.0738,-0.0737,-0.0736,-0.0735,0,0,-0.1514,-0.1474,-0.1475,-0.1398,-0.14,-0.1326,-0.1302,-0.1248,-0.1225,-0.1122,-0.1074,-0.1153,-0.1159,-0.0951,-0.0901,-0.0799,-0.0896,-0.0757,-0.1129,-0.1154,-0.1179,-0.1245,-0.1224,0,0,0,0,0]},{"header":{"parameterUnit":"m.s-1","parameterCategory":2,"la1":30.2991,"la2":30.254,"lo1":-89.0895,"lo2":-89.0444,"dy":0.0017,"dx":0.0017,"nx":28,"ny":28,"refTime":"2025-12-17T09:00:00:Z","depth":"2","parameterNumber":3,"parameterNumberName":"V-component_of_CURRENTS"},"data":[0,0,0,0,0,0,0,0,0,0,0,0,0,0,0,0,0,0,0,0,0,0,0,0,0,0,0,0,0,0,0,0,0,0,0,0,0,0,0,0,0,0,0,0,0,0,0,0,0,0,0,0,0,0,0,0,0,0,-0.0328,-0.0328,0,-0.0272,-0.0272,-0.0271,-0.0231,-0.0231,-0.0231,-0.023,-0.0147,-0.0145,-0.0143,0,0,0,0,0,0,0,0,0,0,0,0,0,-0.036,-0.036,-0.0328,-0.0328,-0.0327,-0.0272,-0.0272,-0.0271,-0.0231,-0.0231,-0.023,-0.023,-0.0148,-0.0145,-0.0143,0,0,0,0,0,0,0,0,0,0,0,0,0,-0.0328,-0.036,-0.0328,-0.0302,-0.0299,-0.0273,-0.0272,-0.027,-0.0231,-0.0231,-0.023,-0.023,-0.0148,-0.0145,-0.0142,-0.013,0,0,-0.0133,-0.0132,0,0,0,0,0,0,0,0,-0.033,-0.0327,-0.0306,-0.0303,-0.03,-0.0259,-0.0252,-0.0223,-0.0231,-0.0255,-0.023,-0.023,-0.0183,-0.0177,-0.0166,-0.0126,-0.0122,-0.0133,-0.0131,-0.013,-0.0129,0,0,0,0,0,0,0,-0.0332,-0.0329,-0.0305,-0.0306,-0.0302,-0.0279,-0.0274,-0.0246,-0.022,-0.0253,-0.0251,-0.0246,-0.0181,-0.0169,-0.0164,-0.0121,-0.0133,-0.013,-0.0128,-0.0127,-0.0057,-0.0057,0,0,0,0,0,0,-0.0344,-0.0331,-0.0307,-0.0303,-0.0316,-0.0279,-0.0273,-0.0272,-0.0221,-0.0214,-0.0247,-0.0245,-0.0174,-0.0167,-0.0161,-0.0136,-0.013,-0.0127,-0.0125,-0.0057,-0.0057,-0.0057,0,0,0,0,0,0,-0.0345,-0.0343,-0.0309,-0.0317,-0.0311,-0.0279,-0.0277,-0.0271,-0.026,-0.0217,-0.0208,-0.0243,-0.0174,-0.0165,-0.0136,-0.0133,-0.0126,-0.0123,-0.0057,-0.0057,-0.0057,-0.0091,0,0,0,0,0,0,-0.0347,-0.0344,-0.0348,-0.0318,-0.0311,-0.0299,-0.0277,-0.027,-0.0259,-0.0255,-0.021,-0.0202,-0.0173,-0.0141,-0.0133,-0.0128,-0.012,-0.0057,-0.0057,-0.0057,-0.009,-0.0092,-0.0094,0,0,0,0,0,-0.0348,-0.0358,-0.0349,-0.0346,-0.0318,-0.03,-0.0294,-0.0269,-0.0259,-0.0257,-0.0224,-0.0204,-0.0135,-0.0138,-0.0129,-0.0124,-0.0057,-0.0057,-0.0057,-0.0089,-0.0092,-0.0094,0,0,0,0,0,0,-0.0374,-0.0354,-0.0343,-0.0347,-0.0327,-0.0293,-0.0292,-0.0274,-0.0247,-0.0245,-0.0202,-0.0192,-0.0165,-0.0142,-0.0147,-0.0104,-0.0093,-0.0091,-0.0121,-0.0123,-0.0125,-0.0135,-0.0118,0,0,0,0,0,-0.0383,-0.0385,-0.0359,-0.0362,-0.0355,-0.0324,-0.0314,-0.0298,-0.027,-0.0258,-0.0225,-0.019,-0.0158,-0.0139,-0.011,-0.0086,-0.0056,-0.0077,-0.0079,-0.0081,-0.0083,-0.0034,-0.0031,-0.0057,-0.0057,-0.0057,0,0,-0.0393,-0.0384,-0.0384,-0.0368,-0.035,-0.0345,-0.0317,-0.0308,-0.0299,-0.0253,-0.0232,-0.0198,-0.0154,-0.0127,-0.0113,-0.0106,-0.0058,-0.0081,-0.0083,-0.0084,-0.0033,-0.0031,-0.0029,-0.0057,-0.0057,-0.0057,0,0,-0.042,-0.0408,-0.042,-0.0406,-0.0388,-0.0366,-0.0367,-0.0335,-0.0317,-0.0294,-0.0256,-0.0219,-0.0177,-0.0138,-0.0114,-0.011,-0.0073,-0.0104,-0.0117,-0.007,-0.0067,-0.0065,-0.0025,-0.0019,-0.0102,-0.0102,-0.0102,0,-0.0435,-0.0445,-0.0419,-0.0426,-0.0419,-0.0379,-0.0386,-0.0361,-0.0323,-0.0304,-0.0294,-0.0214,-0.018,-0.0131,-0.013,-0.0113,-0.0085,-0.0112,-0.0072,-0.0069,-0.0066,-0.0026,-0.0018,-0.0104,-0.0104,-0.0103,-0.0103,0,-0.0469,-0.0474,-0.048,-0.0473,-0.046,-0.0461,-0.0423,-0.0405,-0.0378,-0.0345,-0.0297,-0.0243,-0.0194,-0.0176,-0.0152,-0.0109,-0.0097,-0.0083,-0.0068,-0.0065,-0.0023,-0.0015,-0.0106,-0.0106,-0.0105,-0.0105,0,0,-0.0506,-0.0506,-0.0507,-0.0513,-0.0487,-0.048,-0.0461,-0.0427,-0.0409,-0.0362,-0.033,-0.0267,-0.0232,-0.0203,-0.016,-0.0116,-0.0069,-0.0096,-0.0093,-0.006,0.0031,0.0059,0.0071,-0.0049,-0.0048,-0.0047,0.0051,0,-0.054,-0.0572,-0.0553,-0.0568,-0.0578,-0.0533,-0.0517,-0.0478,-0.0433,-0.039,-0.0319,-0.0276,-0.0243,-0.0219,-0.0169,-0.0092,-0.0049,-0.0097,0.0027,0.003,0.0053,0.0081,0.0055,0.0141,0.0059,0.006,0.0062,0,-0.0579,-0.0595,-0.0625,-0.0618,-0.0616,-0.0614,-0.0574,-0.0552,-0.0476,-0.0439,-0.0375,-0.0318,-0.0241,-0.022,-0.0086,-0.012,-0.0053,0.0006,0.0012,0.0055,0.0074,0.0127,0.016,0.0076,0.0075,0.0074,0.0073,0,-0.0627,-0.064,-0.0669,-0.0668,-0.0653,-0.0651,-0.0634,-0.0572,-0.0547,-0.0468,-0.0437,-0.0337,-0.0282,-0.0186,-0.0062,-0.0075,0.0086,0.0086,0.0176,0.0178,0.0189,0.0191,0.0175,0.0175,0.0175,0.0174,0.0174,0,-0.0673,-0.0692,-0.0697,-0.0714,-0.0736,-0.0701,-0.0698,-0.0661,-0.0599,-0.0561,-0.0469,-0.0411,-0.0271,-0.016,-0.0062,0.0092,0.009,0.0182,0.0211,0.0176,0.0175,0.0143,0.0138,0.0178,0.0177,0.0176,0.0176,0,-0.0722,-0.0726,-0.0759,-0.0762,-0.0765,-0.078,-0.0757,-0.0744,-0.0677,-0.0624,-0.0602,-0.0458,-0.0304,-0.0158,0.0016,0.0099,0.0235,0.0285,0.0233,0.0254,0.029,0.0282,0.0391,0.0393,0.0395,0.0396,0.0397,0,-0.075,-0.0776,-0.0806,-0.0831,-0.0838,-0.085,-0.0854,-0.0797,-0.0773,-0.0644,-0.062,-0.0458,-0.0326,-0.0054,0.0118,0.0306,0.0297,0.0378,0.0351,0.0298,0.0316,0.0305,0.0295,0.0351,0.0352,0.0353,0.0353,0,-0.08,-0.0813,-0.0841,-0.0899,-0.0923,-0.0936,-0.0931,-0.0925,-0.0837,-0.0761,-0.0627,-0.0508,-0.0237,-0.0019,0.0221,0.0321,0.0344,0.0395,0.0375,0.0297,0.0268,0.0282,0.0272,0.0358,0.0357,0.0357,0.0357,0.0357,-0.0829,-0.0867,-0.0909,-0.0959,-0.0989,-0.1008,-0.1009,-0.0972,-0.0913,-0.0773,-0.065,-0.0437,-0.0235,0.0121,0.028,0.0424,0.0421,0.0444,0.044,0.0435,0.0409,0.0385,0.0492,0.0492,0.0492,0.0492,0.0492,0,-0.0863,-0.0906,-0.0963,-0.1017,-0.1055,-0.1053,-0.1044,-0.1006,-0.0926,-0.0769,-0.0607,-0.035,-0.0099,0.011,0.0343,0.0477,0.0452,0.0489,0.0426,0.0421,0.0417,0.0387,0.0465,0.0466,0.0466,0.0466,0,0,-0.0881,-0.0946,-0.0979,-0.1054,-0.1089,-0.1104,-0.1092,-0.1007,-0.0888,-0.0712,-0.0541,-0.033,-0.0077,0.0077,0.0245,0.0363,0.0353,0.037,0.0379,0.0279,0.0273,0.0381,0.0329,0,0,0,0,0]}],[{"header":{"parameterUnit":"m.s-1","parameterCategory":2,"la1":30.2991,"la2":30.254,"lo1":-89.0895,"lo2":-89.0444,"dy":0.0017,"dx":0.0017,"nx":28,"ny":28,"refTime":"2025-12-17T09:00:00:Z","depth":"4","parameterNumber":2,"parameterNumberName":"U-component_of_CURRENTS"},"data":[0,0,0,0,0,0,0,0,0,0,0,0,0,0,0,0,0,0,0,0,0,0,0,0,0,0,0,0,0,0,0,0,0,0,0,0,0,0,0,0,0,0,0,0,0,0,0,0,0,0,0,0,0,0,0,0,0,0,-0.1304,-0.1304,0,-0.1335,-0.1335,-0.1336,-0.1354,-0.1354,-0.1355,-0.1355,-0.1374,-0.1374,-0.1375,0,0,0,0,0,0,0,0,0,0,0,0,0,-0.1248,-0.1248,-0.1304,-0.1304,-0.1305,-0.1335,-0.1335,-0.1336,-0.1354,-0.1354,-0.1355,-0.1355,-0.1374,-0.1374,-0.1375,0,0,0,0,0,0,0,0,0,0,0,0,0,-0.1273,-0.1249,-0.1303,-0.1319,-0.1321,-0.1335,-0.1335,-0.1336,-0.1354,-0.1354,-0.1355,-0.1355,-0.1374,-0.1374,-0.1375,-0.137,0,0,-0.1376,-0.1376,0,0,0,0,0,0,0,0,-0.1272,-0.1275,-0.1316,-0.1318,-0.132,-0.1343,-0.1323,-0.1347,-0.1354,-0.1339,-0.1355,-0.1355,-0.1363,-0.1365,-0.1367,-0.1371,-0.1372,-0.1376,-0.1376,-0.1377,-0.1377,0,0,0,0,0,0,0,-0.127,-0.1274,-0.1314,-0.1317,-0.1319,-0.132,-0.1324,-0.1327,-0.1347,-0.1341,-0.1343,-0.1349,-0.1364,-0.1367,-0.1368,-0.1372,-0.1376,-0.1376,-0.1377,-0.1377,-0.1425,-0.1426,0,0,0,0,0,0,-0.127,-0.1272,-0.1313,-0.1315,-0.1298,-0.1321,-0.1326,-0.1334,-0.1348,-0.1351,-0.1349,-0.135,-0.1366,-0.1367,-0.1369,-0.1418,-0.1377,-0.1377,-0.1377,-0.1424,-0.1425,-0.1427,0,0,0,0,0,0,-0.1269,-0.1273,-0.1312,-0.1296,-0.1301,-0.1322,-0.1331,-0.1334,-0.1359,-0.1354,-0.1357,-0.1373,-0.1366,-0.1368,-0.1394,-0.1416,-0.1377,-0.1378,-0.1423,-0.1425,-0.1426,-0.1481,0,0,0,0,0,0,-0.1267,-0.1273,-0.1288,-0.1296,-0.1302,-0.1336,-0.1331,-0.1334,-0.1362,-0.1364,-0.1375,-0.1376,-0.1367,-0.1394,-0.1395,-0.1416,-0.1378,-0.1422,-0.1424,-0.1426,-0.1478,-0.1484,-0.1489,0,0,0,0,0,-0.1265,-0.1281,-0.1288,-0.1294,-0.1319,-0.1337,-0.1341,-0.1355,-0.1363,-0.1378,-0.1389,-0.1377,-0.1406,-0.1395,-0.1396,-0.1418,-0.1421,-0.1423,-0.1425,-0.1475,-0.1483,-0.1489,0,0,0,0,0,0,-0.1267,-0.1285,-0.1293,-0.1315,-0.1333,-0.1341,-0.136,-0.1369,-0.139,-0.1398,-0.1392,-0.1394,-0.1423,-0.1415,-0.1402,-0.1437,-0.1411,-0.1413,-0.1448,-0.1455,-0.1461,-0.1458,-0.1378,0,0,0,0,0,-0.1274,-0.1291,-0.1308,-0.1328,-0.134,-0.1355,-0.1368,-0.1379,-0.1394,-0.1405,-0.1414,-0.1422,-0.1429,-0.1439,-0.1443,-0.1465,-0.1442,-0.1479,-0.1485,-0.149,-0.1488,-0.1477,-0.1481,-0.1434,-0.1434,-0.1434,0,0,-0.1282,-0.1293,-0.1305,-0.133,-0.1345,-0.1367,-0.1364,-0.1393,-0.1415,-0.1402,-0.1443,-0.1445,-0.144,-0.1464,-0.1476,-0.1463,-0.1492,-0.1493,-0.1497,-0.1492,-0.1479,-0.1484,-0.1488,-0.1436,-0.1435,-0.1435,0,0,-0.1296,-0.1317,-0.1335,-0.1353,-0.1382,-0.1391,-0.1406,-0.143,-0.1448,-0.1481,-0.1477,-0.1495,-0.1513,-0.1511,-0.1511,-0.1551,-0.1523,-0.1558,-0.1587,-0.1577,-0.158,-0.1583,-0.1563,-0.1563,-0.1562,-0.1562,-0.1562,0,-0.1307,-0.1328,-0.1344,-0.1365,-0.1385,-0.1406,-0.143,-0.1451,-0.1483,-0.1497,-0.1503,-0.153,-0.1531,-0.1547,-0.1565,-0.1564,-0.1551,-0.1561,-0.1584,-0.1586,-0.1588,-0.1566,-0.1566,-0.1565,-0.1565,-0.1564,-0.1564,0,-0.1325,-0.1353,-0.1368,-0.14,-0.1424,-0.1451,-0.1479,-0.151,-0.1535,-0.1549,-0.1583,-0.1586,-0.1598,-0.1606,-0.1601,-0.1619,-0.1603,-0.1592,-0.1564,-0.1596,-0.1571,-0.157,-0.1569,-0.1568,-0.1567,-0.1567,0,0,-0.1314,-0.137,-0.1377,-0.1398,-0.1446,-0.1463,-0.1509,-0.1544,-0.1569,-0.1604,-0.1629,-0.1651,-0.1655,-0.1654,-0.1651,-0.1649,-0.1656,-0.1635,-0.1633,-0.1611,-0.1629,-0.1527,-0.1515,-0.1653,-0.1653,-0.1653,-0.1607,0,-0.1323,-0.1364,-0.1394,-0.144,-0.1463,-0.1503,-0.1539,-0.1577,-0.1607,-0.1638,-0.1649,-0.1672,-0.1672,-0.1682,-0.1683,-0.1662,-0.1656,-0.1669,-0.1604,-0.1602,-0.1505,-0.1511,-0.1653,-0.1606,-0.1605,-0.1605,-0.1605,0,-0.1322,-0.1351,-0.1397,-0.1455,-0.147,-0.1506,-0.1562,-0.1597,-0.1643,-0.1667,-0.1693,-0.1701,-0.1715,-0.1706,-0.1686,-0.1697,-0.167,-0.1649,-0.1647,-0.1528,-0.1497,-0.1567,-0.1602,-0.1602,-0.1603,-0.1603,-0.1603,0,-0.1283,-0.1349,-0.1386,-0.1407,-0.1478,-0.1512,-0.1553,-0.1607,-0.1635,-0.1684,-0.1702,-0.1721,-0.1724,-0.1707,-0.1676,-0.1685,-0.1637,-0.1636,-0.1516,-0.1508,-0.1591,-0.1589,-0.1613,-0.1613,-0.1613,-0.1613,-0.1613,0,-0.126,-0.1291,-0.1376,-0.1392,-0.1438,-0.1499,-0.1547,-0.1589,-0.1645,-0.1662,-0.1713,-0.1713,-0.1726,-0.1703,-0.1677,-0.1583,-0.1634,-0.1512,-0.1487,-0.1616,-0.1617,-0.159,-0.1588,-0.1611,-0.1612,-0.1612,-0.1612,0,-0.1201,-0.1259,-0.1304,-0.139,-0.1419,-0.1452,-0.1539,-0.1561,-0.1631,-0.1652,-0.1669,-0.1705,-0.1669,-0.1661,-0.1618,-0.1561,-0.1497,-0.1451,-0.1583,-0.1568,-0.1378,-0.1379,-0.1309,-0.1305,-0.1302,-0.1299,-0.1296,0,-0.1169,-0.1188,-0.1286,-0.1311,-0.1353,-0.1416,-0.1448,-0.1538,-0.1555,-0.1625,-0.1612,-0.1619,-0.1623,-0.1471,-0.1488,-0.1415,-0.1398,-0.1359,-0.1376,-0.1362,-0.1345,-0.1353,-0.1359,-0.1291,-0.129,-0.1289,-0.1288,0,-0.1101,-0.115,-0.1183,-0.1236,-0.1281,-0.1322,-0.1376,-0.1379,-0.1462,-0.1549,-0.1502,-0.1473,-0.1426,-0.1384,-0.1333,-0.1289,-0.1384,-0.1323,-0.133,-0.1345,-0.134,-0.1328,-0.1338,-0.1276,-0.1278,-0.1279,-0.128,0,-0.1046,-0.1053,-0.1103,-0.1134,-0.1189,-0.119,-0.1243,-0.1252,-0.1283,-0.1368,-0.1347,-0.1358,-0.1403,-0.1317,-0.1275,-0.1218,-0.1201,-0.116,-0.1175,-0.1189,-0.1171,-0.1147,-0.0992,0,0,0,0,0,-0.0978,-0.0967,-0.0993,-0.1016,-0.1066,-0.1091,-0.1167,-0.1221,-0.131,-0.1236,-0.1287,-0.124,-0.1179,-0.1192,-0.1103,-0.1218,-0.1205,-0.1111,-0.1167,-0.121,-0.1224,-0.1214,0,0,0,0,0,0,-0.093,-0.0946,-0.095,-0.0903,-0.0895,-0.0931,-0.0971,-0.1038,-0.1007,-0.1105,-0.1072,-0.1155,-0.1108,-0.1193,-0.107,-0.1074,-0.1081,-0.1135,-0.1132,-0.1202,-0.1215,-0.1226,-0.1221,0,0,0,0,0]},{"header":{"parameterUnit":"m.s-1","parameterCategory":2,"la1":30.2991,"la2":30.254,"lo1":-89.0895,"lo2":-89.0444,"dy":0.0017,"dx":0.0017,"nx":28,"ny":28,"refTime":"2025-12-17T09:00:00:Z","depth":"4","parameterNumber":3,"parameterNumberName":"V-component_of_CURRENTS"},"data":[0,0,0,0,0,0,0,0,0,0,0,0,0,0,0,0,0,0,0,0,0,0,0,0,0,0,0,0,0,0,0,0,0,0,0,0,0,0,0,0,0,0,0,0,0,0,0,0,0,0,0,0,0,0,0,0,0,0,-0.0241,-0.0241,0,-0.0208,-0.0208,-0.0207,-0.0185,-0.0185,-0.0184,-0.0184,-0.0126,-0.0125,-0.0124,0,0,0,0,0,0,0,0,0,0,0,0,0,-0.0254,-0.0254,-0.0241,-0.0241,-0.024,-0.0208,-0.0208,-0.0207,-0.0185,-0.0185,-0.0184,-0.0184,-0.0127,-0.0125,-0.0123,0,0,0,0,0,0,0,0,0,0,0,0,0,-0.0237,-0.0254,-0.0241,-0.0226,-0.0224,-0.0208,-0.0208,-0.0207,-0.0185,-0.0185,-0.0184,-0.0184,-0.0127,-0.0125,-0.0123,-0.0112,0,0,-0.0116,-0.0115,0,0,0,0,0,0,0,0,-0.0238,-0.0236,-0.0228,-0.0227,-0.0225,-0.0201,-0.0191,-0.0174,-0.0185,-0.0199,-0.0184,-0.0184,-0.015,-0.0146,-0.0139,-0.0109,-0.0107,-0.0116,-0.0115,-0.0114,-0.0113,0,0,0,0,0,0,0,-0.0239,-0.0237,-0.0227,-0.0228,-0.0226,-0.0211,-0.0208,-0.0188,-0.0174,-0.0197,-0.0196,-0.0194,-0.0148,-0.0141,-0.0137,-0.0106,-0.0116,-0.0114,-0.0113,-0.0112,-0.0062,-0.0062,0,0,0,0,0,0,-0.0247,-0.0239,-0.0228,-0.0226,-0.0232,-0.0211,-0.0208,-0.0208,-0.0175,-0.017,-0.0194,-0.0193,-0.0145,-0.014,-0.0135,-0.0119,-0.0114,-0.0112,-0.0111,-0.0062,-0.0062,-0.0062,0,0,0,0,0,0,-0.0247,-0.0246,-0.0229,-0.0232,-0.0229,-0.0211,-0.0211,-0.0208,-0.0204,-0.0173,-0.0167,-0.0195,-0.0145,-0.0138,-0.012,-0.0117,-0.0111,-0.0109,-0.0062,-0.0062,-0.0062,-0.0088,0,0,0,0,0,0,-0.0248,-0.0247,-0.0253,-0.0233,-0.0229,-0.0226,-0.0211,-0.0207,-0.0203,-0.0202,-0.0172,-0.0166,-0.0144,-0.0123,-0.0117,-0.0114,-0.0107,-0.0062,-0.0062,-0.0062,-0.0087,-0.0088,-0.009,0,0,0,0,0,-0.0248,-0.0258,-0.0253,-0.0252,-0.0237,-0.0226,-0.0223,-0.0208,-0.0204,-0.0204,-0.0183,-0.0167,-0.0119,-0.0121,-0.0115,-0.011,-0.0062,-0.0062,-0.0062,-0.0086,-0.0088,-0.009,0,0,0,0,0,0,-0.0266,-0.0256,-0.025,-0.0256,-0.0245,-0.0223,-0.0224,-0.0214,-0.0198,-0.0198,-0.0167,-0.0159,-0.0141,-0.0124,-0.0128,-0.0096,-0.0088,-0.0086,-0.0108,-0.011,-0.0112,-0.012,-0.0105,0,0,0,0,0,-0.0274,-0.0279,-0.0263,-0.0268,-0.0264,-0.0246,-0.0241,-0.0232,-0.0214,-0.0207,-0.0184,-0.016,-0.0136,-0.0123,-0.0101,-0.0085,-0.006,-0.0077,-0.0079,-0.008,-0.0083,-0.0041,-0.0038,-0.0062,-0.0062,-0.0062,0,0,-0.0282,-0.0278,-0.028,-0.0272,-0.0263,-0.0262,-0.0243,-0.024,-0.0236,-0.0203,-0.0192,-0.0166,-0.0133,-0.0113,-0.0104,-0.0098,-0.0062,-0.008,-0.0082,-0.0083,-0.004,-0.0038,-0.0036,-0.0062,-0.0062,-0.0062,0,0,-0.0302,-0.0298,-0.0309,-0.0302,-0.0294,-0.028,-0.0282,-0.0263,-0.0252,-0.0238,-0.021,-0.0183,-0.0153,-0.0122,-0.0104,-0.0101,-0.0073,-0.0097,-0.0109,-0.0068,-0.0066,-0.0063,-0.0033,-0.0028,-0.0097,-0.0097,-0.0097,0,-0.0314,-0.0325,-0.031,-0.0317,-0.0315,-0.0291,-0.0299,-0.0282,-0.0259,-0.0247,-0.0241,-0.0182,-0.0155,-0.0117,-0.0117,-0.0104,-0.0082,-0.0105,-0.007,-0.0067,-0.0064,-0.0033,-0.0027,-0.0098,-0.0098,-0.0098,-0.0097,0,-0.0339,-0.0349,-0.0355,-0.0355,-0.0349,-0.0353,-0.0329,-0.0319,-0.0303,-0.0281,-0.0246,-0.0204,-0.0168,-0.0152,-0.0135,-0.0099,-0.0091,-0.0078,-0.0066,-0.0063,-0.0031,-0.0024,-0.01,-0.0099,-0.0099,-0.0098,0,0,-0.0363,-0.0372,-0.0375,-0.0384,-0.0371,-0.037,-0.036,-0.034,-0.0331,-0.0297,-0.0275,-0.0225,-0.0198,-0.0176,-0.0141,-0.0104,-0.0064,-0.0088,-0.0085,-0.006,0.0018,0.001,0.0017,-0.0046,-0.0045,-0.0044,0.0031,0,-0.0389,-0.0418,-0.0409,-0.0429,-0.044,-0.0414,-0.0406,-0.0382,-0.0352,-0.0324,-0.0267,-0.0236,-0.0207,-0.019,-0.0147,-0.0085,-0.0047,-0.0087,0.0013,0.0016,0.0008,0.0025,-0.0041,0.0037,0.0038,0.0039,0.004,0,-0.0415,-0.0433,-0.0464,-0.047,-0.0472,-0.0478,-0.0459,-0.0447,-0.0394,-0.0369,-0.0319,-0.0274,-0.021,-0.0191,-0.008,-0.0108,-0.0052,-0.0003,0.0002,0.0008,0.0021,0.0035,0.0053,0.0052,0.0051,0.005,0.005,0,-0.0445,-0.0467,-0.0497,-0.0501,-0.0503,-0.051,-0.0505,-0.0466,-0.0453,-0.0396,-0.0376,-0.0293,-0.025,-0.0167,-0.0066,-0.0073,0.0055,0.0061,0.0109,0.0109,0.0105,0.0101,0.0137,0.0137,0.0137,0.0137,0.0136,0,-0.0473,-0.0496,-0.052,-0.0537,-0.0569,-0.055,-0.0562,-0.054,-0.0501,-0.048,-0.0405,-0.0364,-0.0243,-0.0154,-0.0069,0.0043,0.0057,0.011,0.0131,0.0091,0.0086,0.011,0.0105,0.0139,0.0139,0.0138,0.0138,0,-0.0498,-0.0514,-0.0553,-0.0576,-0.0588,-0.061,-0.0615,-0.0613,-0.057,-0.0538,-0.0522,-0.0412,-0.0292,-0.0169,-0.0022,0.0037,0.0145,0.018,0.0125,0.0142,0.017,0.0164,0.0237,0.0238,0.0238,0.0238,0.0238,0,-0.0512,-0.0538,-0.0592,-0.0623,-0.0642,-0.067,-0.0686,-0.0657,-0.0645,-0.0562,-0.0545,-0.0426,-0.0342,-0.0133,-0.0013,0.0153,0.0172,0.0218,0.0195,0.0169,0.0182,0.0175,0.0168,0.0239,0.0239,0.0239,0.0239,0,-0.0537,-0.0564,-0.0597,-0.0668,-0.0706,-0.0735,-0.075,-0.0746,-0.0694,-0.0659,-0.0547,-0.0428,-0.0289,-0.013,0.0002,0.0117,0.0182,0.0222,0.0221,0.0201,0.0172,0.0183,0.0176,0.0241,0.024,0.024,0.024,0,-0.0554,-0.0589,-0.0643,-0.0698,-0.0752,-0.078,-0.0785,-0.0753,-0.0728,-0.0628,-0.0592,-0.0428,-0.0328,-0.0148,-0.0027,0.0088,0.0109,0.0129,0.0134,0.0134,0.0077,0.0024,0.007,0,0,0,0,0,-0.0562,-0.0605,-0.0666,-0.0726,-0.0779,-0.0802,-0.0815,-0.0803,-0.0757,-0.0682,-0.063,-0.0493,-0.0287,-0.0192,-0.0077,-0.0042,0.0108,0.0091,0.0128,0.0247,0.0246,0.0197,0,0,0,0,0,0,-0.0571,-0.0632,-0.0665,-0.0732,-0.0774,-0.0819,-0.0827,-0.0798,-0.0743,-0.0679,-0.0563,-0.0482,-0.028,-0.0347,-0.0078,-0.0042,-0.0009,0.0196,0.0198,0.0248,0.0247,0.0246,0.0195,0,0,0,0,0]}]]